Charlottetown, Prince Edward Island

1:09 PM ADT on August 19, 2017 (GMT -0300)
Charlottetown

Weather History for CYYG - October, 2013

Change the Weather History Date:

Monday, October 21, 2013

  Actual Average Record
Temperature  
Mean Temperature 44 °F -  
Max Temperature 48 °F 46 °F 64 °F (2000)
Min Temperature 41 °F 33 °F 28 °F (2003)
Degree Days  
Heating Degree Days 20    
Moisture  
Dew Point 39 °F    
Average Humidity 76    
Maximum Humidity 93    
Minimum Humidity 65    
Precipitation  
Precipitation 0.00 in 0.16 in - ()
Sea Level Pressure  
Sea Level Pressure 29.87 in    
Wind  
Wind Speed 8 mph ()    
Max Wind Speed 15 mph    
Max Gust Speed 25 mph    
Visibility 15.0 miles    
Events Rain    
Averages and records for this station are not official NWS values.
T = Trace of Precipitation, MM = Missing Value Source: Averaged Metar Reports

Daily Weather History Graph

Daily Weather History Graph

Search for Another Location

Airport or City:

Trip Planner

Search our weather history database for the weather conditions in past years. The results will help you decide how hot, cold, wet, or windy it might be!

Date:

Astronomy

Oct. 21, 2013 Rise Set
Actual Time 7:38 AM ADT 6:15 PM ADT
Civil Twilight 7:07 AM ADT 6:45 PM ADT
Nautical Twilight 6:32 AM ADT 7:20 PM ADT
Astronomical Twilight 5:57 AM ADT 7:55 PM ADT
Moon 7:56 PM ADT (10/21) 10:17 AM ADT (10/21)
Length of Visible Light 11h 38m
Length of Day
10h 36m
Waning Gibbous, 93% of the Moon is Illuminated
Oct 21
Waning Gibbous
Oct 26
Last Quarter
Nov 3
New
Nov 10
First Quarter
Nov 17
Full

Hourly Weather History & Observations

Time (ADT) Temp. Windchill Dew Point Humidity Pressure Visibility Wind Dir Wind Speed Gust Speed Precip Events Conditions
12:00 AM 44.6 °F 41.4 °F 42.8 °F 93% 29.72 in 15.0 mi West 5.8 mph - N/A   Partly Cloudy
1:00 AM 44.6 °F 41.4 °F 42.8 °F 93% 29.72 in 15.0 mi WSW 5.8 mph - N/A   Partly Cloudy
2:00 AM 46.4 °F 41.5 °F 39.2 °F 76% 29.73 in 15.0 mi West 10.4 mph 17.3 mph N/A   Partly Cloudy
3:00 AM 45 °F - 38 °F 68% 29.74 in 15 mi West 9.2 mph - -   Scattered Clouds
3:00 AM 44.6 °F 38.8 °F 37.4 °F 76% 29.74 in 15.0 mi West 11.5 mph - N/A   Partly Cloudy
4:00 AM 44.6 °F 39.2 °F 37.4 °F 76% 29.75 in 15.0 mi West 10.4 mph - N/A   Partly Cloudy
5:00 AM 42.8 °F 38.0 °F 37.4 °F 81% 29.77 in 15.0 mi West 8.1 mph - N/A   Partly Cloudy
6:00 AM 42.8 °F 37.5 °F 35.6 °F 76% 29.77 in 15.0 mi West 9.2 mph - N/A   Partly Cloudy
7:00 AM 42.8 °F 37.5 °F 35.6 °F 76% 29.78 in 15.0 mi West 9.2 mph - N/A   Partly Cloudy
8:00 AM 42.8 °F 37.0 °F 35.6 °F 76% 29.81 in 15.0 mi WSW 10.4 mph - N/A   Partly Cloudy
9:00 AM 44 °F - 38 °F 72% 29.83 in 15 mi West 11.5 mph - -   Scattered Clouds
9:00 AM 44.6 °F 38.8 °F 37.4 °F 76% 29.83 in 15.0 mi West 11.5 mph 18.4 mph N/A   Partly Cloudy
10:00 AM 46.4 °F 40.1 °F 37.4 °F 71% 29.85 in 15.0 mi West 15.0 mph 25.3 mph N/A   Partly Cloudy
11:00 AM 46.4 °F 40.4 °F 37.4 °F 71% 29.86 in 15.0 mi West 13.8 mph 20.7 mph N/A   Mostly Cloudy
12:00 PM 48.2 °F - 39.2 °F 71% 29.87 in 15.0 mi WNW 9.2 mph 21.9 mph N/A   Mostly Cloudy
1:00 PM 48.2 °F - 37.4 °F 66% 29.88 in 15.0 mi WNW 11.5 mph 20.7 mph N/A   Mostly Cloudy
2:00 PM 48.2 °F - 37.4 °F 66% 29.89 in 15.0 mi WNW 12.7 mph 19.6 mph N/A   Mostly Cloudy
3:00 PM 46 °F - 38 °F 65% 29.92 in 15 mi West 10.4 mph - -   Mostly Cloudy
3:00 PM 46.4 °F 41.1 °F 37.4 °F 71% 29.91 in 15.0 mi West 11.5 mph - N/A   Mostly Cloudy
4:00 PM 46.4 °F 41.9 °F 39.2 °F 76% 29.93 in 15.0 mi West 9.2 mph - N/A   Mostly Cloudy
5:00 PM 48.2 °F - 39.2 °F 71% 29.95 in 15.0 mi West 5.8 mph - N/A   Mostly Cloudy
6:00 PM 48.2 °F - 39.2 °F 71% 29.96 in 15.0 mi West 4.6 mph - N/A   Mostly Cloudy
7:00 PM 46.4 °F - 41.0 °F 81% 29.97 in 15.0 mi SW 2.3 mph - N/A   Mostly Cloudy
8:00 PM 46.4 °F 44.3 °F 41.0 °F 81% 29.99 in 15.0 mi SW 4.6 mph - N/A   Mostly Cloudy
9:00 PM 47 °F - 42 °F 76% 30.00 in 15 mi West 3.5 mph - -   Mostly Cloudy
9:00 PM 46.4 °F 45.2 °F 41.0 °F 81% 30.00 in 15.0 mi West 3.5 mph - N/A   Mostly Cloudy
10:00 PM 48.2 °F - 41.0 °F 76% 30.00 in 15.0 mi WSW 3.5 mph - N/A   Mostly Cloudy
11:00 PM 48.2 °F - 42.8 °F 82% 30.01 in 15.0 mi West 5.8 mph - N/A   Mostly Cloudy
11:09 PM 48.2 °F - 42.8 °F 82% 30.01 in 15.0 mi West 4.6 mph - N/A Rain Light Rain Showers
11:32 PM 46.4 °F 45.2 °F 42.8 °F 87% 30.01 in 15.0 mi West 3.5 mph - N/A   Mostly Cloudy